Location: Passau
(48.5830°N, 13.4830°E)
Time: 06:04:55
(UTC+02:00)

Vanguard 1 - Pass Details

Date: 30 July 2021
Orbit: 652 x 3831 km, 34.3° (Epoch: 16 September)

Event Time Altitude Azimuth Distance (km) Brightness Sun altitude
Rises 12:12:05 0° 218° (SW) 3,154 12.9 57.4°
Reaches altitude 10° 12:14:51 10° 199° (SSW) 2,439 12.6 57.6°
Maximum altitude 12:18:45 19° 154° (SSE) 2,231 12.9 57.9°
Drops below altitude 10° 12:24:01 10° 113° (ESE) 3,427 13.3 58.3°
Sets 12:28:55 0° 98° (E) 5,009 13.9 58.5°
